Powrót do katalogu

CZ-4C R/B

AktywnyLEO
NORAD 39242·ROCKET BODY·🇨🇳 China

Wystrzelony Sep 1, 2013 z Jiuquan Satellite Launch Center

Loading…

Następne Przeloty (najbliższe 24 godziny)

TLE

ŚwieżeSource: Space-Track

Epoka: Sep 14, 2026, 10:14 UTC

1 39242U 13046D   26257.42648209 -.00000039  00000-0  26629-4 0  9993
2 39242  63.4171  42.3360 0609346 353.7246   5.6395 13.71323735652174

Śledź CZ-4C R/B w czasie rzeczywistym z AllMySat

Download on the App Store